Powrót do katalogu

FENGYUN 1C DEB

AktywnyPO
NORAD 31630·DEBRIS·🇨🇳 China

Wystrzelony May 10, 1999 z Taiyuan Satellite Launch Center

Loading…

Następne Przeloty (najbliższe 24 godziny)

TLE

ŚwieżeSource: Space-Track

Epoka: Sep 12, 2026, 06:43 UTC

1 31630U 99025CAL 26255.28011143  .00019229  00000-0  75372-3 0  9998
2 31630  98.0982  84.5067 0135928 146.2998 214.6970 15.17576391 27113

Śledź FENGYUN 1C DEB w czasie rzeczywistym z AllMySat

Download on the App Store